Location: Lombard
(41.8800°N, 88.0080°W)
Time: 00:24:57
(UTC-05:00)

A-11 Canister half - Pass Details

Date: 06 February 2023
Orbit: 1512 x 1687 km, 47.2° (Epoch: 20 March)

Event Time Altitude Azimuth Distance (km) Brightness Sun altitude
Rises 09:03:56 0° 216° (SW) 4,890 11.7 18.9°
Reaches altitude 10° 09:07:14 10° 211° (SSW) 3,886 11.3 19.3°
Maximum altitude 09:16:40 51° 140° (SE) 1,948 10.8 20.5°
Drops below altitude 10° 09:25:47 10° 68° (ENE) 3,766 11.4 21.7°
Sets 09:28:54 0° 63° (ENE) 4,730 11.8 22.1°
